Flag for Italy Weather past 2 weeks in Varese, Italy

Now
64 °F

Mild.


Feels Like: 64 °F
Forecast: 57 / 71 °F
Wind: 1 mph from South

Location: Stabio

Current Time: Sep 30, 2014 at 7:58:58 PM

Latest Report: Sep 30, 2014 at 7:00 PM


Visibility: N/A

Pressure: 30.27 "Hg

Humidity: 92%

Dew point: 61 °F

Location of VareseLocation

Historic Weather in Varese — Graph

°F

Varese temperature yesterday

Maximum temperature yesterday: 73 °F (at 4:00 PM)
Minimum temperature yesterday: 50 °F (at 7:00 AM)
Average temperature yesterday: 60 °F

Past Weeks' High & Low Weather Summary

 TemperatureHumidityPressure
High77 °F (Sep 22, 3:00 PM)100% (Sep 21, 5:00 AM)30.41 "Hg (Sep 21, 5:00 AM)
Low44 °F (Sep 24, 6:00 AM)20% (Sep 22, 3:00 PM)29.75 "Hg (Sep 22, 6:00 PM)
Average61 °F82%30.11 "Hg
* Reported Sep 15 6:00 PM — Sep 30 6:00 PM, Varese, Weather by CustomWeather, © 2014

Note: Actual official high and low records may vary slightly from our data, if they occured in-between our weather recording intervals... More about our weather records

Advertising

Varese weather history for previous 24 hours

 ConditionsComfort  
Time TempWeatherWind HumidityBarometerVisibility
6:00 PM
Sep 30
66 °FMild.1 mph82%30.27 "HgN/A
5:00 PM69 °FMild.3 mph70%30.27 "HgN/A
4:00 PM69 °FMild.2 mph72%30.27 "HgN/A
3:00 PM67 °FMild.1 mph81%30.29 "HgN/A
2:00 PM66 °FMild.1 mph80%30.30 "HgN/A
1:00 PM65 °FMild.No wind81%30.32 "HgN/A
12:00 PM66 °FMild.2 mph75%30.32 "HgN/A
11:00 AM63 °FMild.No wind87%30.33 "HgN/A
10:00 AM61 °FCool.2 mph89%30.32 "HgN/A
9:00 AM58 °FCool.1 mph97%30.32 "HgN/A
8:00 AM56 °FCool.No wind97%30.32 "HgN/A
7:00 AM56 °FCool.No wind98%30.32 "HgN/A
6:00 AM55 °FCool.1 mph98%30.32 "HgN/A
5:00 AM55 °FCool.No wind98%30.33 "HgN/A
4:00 AM55 °FCool.No wind97%30.33 "HgN/A
3:00 AM54 °FCool.1 mph97%30.35 "HgN/A
2:00 AM54 °FCool.1 mph98%30.36 "HgN/A
1:00 AM54 °FCool.1 mph98%30.36 "HgN/A
12:00 AM55 °FCool.1 mph98%30.37 "HgN/A
11:00 PM
Sep 29
56 °FCool.1 mph97%30.36 "HgN/A
10:00 PM57 °FCool.1 mph96%30.36 "HgN/A
9:00 PM58 °FCool.No wind96%30.34 "HgN/A
8:00 PM60 °FCool.1 mph94%30.33 "HgN/A
7:00 PM64 °FMild.1 mph87%30.32 "HgN/A
Weather by CustomWeather, © 2014

See weather overviewHow to use our weather pages